カタログに戻る

SL-14 DEB

運用中PO
NORAD 45289·DEBRIS·🇷🇺 Russia

打ち上げ Aug 15, 1991 から Plesetsk Cosmodrome

Loading…

次のパス (今後24時間)

TLE

最新Source: Space-Track

元期: Sep 14, 2026, 04:53 UTC

1 45289U 91056AB  26257.20392690  .00000477  00000-0  18281-2 0  9992
2 45289  82.5413 172.4664 0182167   9.0762 351.3560 12.83104745307673

AllMySatでSL-14 DEBをリアルタイム追跡

Download on the App Store